SWA1311 KMDW-KDCA

Flight info

Callsign SWA1311
Flight time 1h 9m
Altitude 39000
Route LEWKE GIJ OTENS ANEWA JERRI NUSMM BUCKO FRDMM6
Aircraft B736/M-SDE2E3FGHIRWXY/LB1

Departure

Time 2026-05-06 19:08
Airport Chicago Midway International Airport (KMDW)

Arrival

Time 2026-05-06 20:17
Airport Ronald Reagan Washington National Airport (KDCA)
Time Latitude Longitude Altitude Speed Heading
2026-05-06 19:06 41.78886 -87.74474 625 ft 0 kts 329°
2026-05-06 19:06 41.78932 -87.74480 625 ft 17 kts 19°
2026-05-06 19:07 41.79016 -87.74375 618 ft 14 kts 33°
2026-05-06 19:07 41.79089 -87.74293 616 ft 14 kts 42°
2026-05-06 19:07 41.79154 -87.74269 615 ft 10 kts 327°
2026-05-06 19:07 41.79142 -87.74385 619 ft 19 kts 224°
2026-05-06 19:08 41.78929 -87.74652 621 ft 82 kts 223°
2026-05-06 19:08 41.78320 -87.75424 686 ft 150 kts 224°
2026-05-06 19:08 41.77556 -87.76395 1661 ft 149 kts 227°
2026-05-06 19:08 41.76837 -87.77306 2835 ft 140 kts 227°
2026-05-06 19:09 41.75958 -87.78003 3427 ft 169 kts 191°
2026-05-06 19:09 41.74694 -87.77560 3816 ft 215 kts 147°
2026-05-06 19:09 41.73750 -87.75827 4104 ft 254 kts 107°
2026-05-06 19:09 41.73600 -87.73346 4739 ft 276 kts 86°
2026-05-06 19:10 41.73750 -87.70766 5839 ft 280 kts 84°
2026-05-06 19:10 41.73939 -87.68148 6896 ft 286 kts 84°
2026-05-06 19:10 41.74118 -87.65470 7878 ft 292 kts 84°
2026-05-06 19:10 41.74279 -87.62719 8863 ft 299 kts 85°
2026-05-06 19:11 41.74423 -87.59911 9847 ft 306 kts 86°
2026-05-06 19:11 41.74558 -87.57014 10519 ft 322 kts 86°
2026-05-06 19:11 41.74694 -87.53874 10826 ft 349 kts 86°
2026-05-06 19:11 41.74828 -87.50566 11502 ft 361 kts 87°
2026-05-06 19:12 41.74961 -87.47167 12320 ft 369 kts 87°
2026-05-06 19:12 41.75090 -87.43736 13126 ft 377 kts 88°
2026-05-06 19:12 41.75221 -87.40178 13892 ft 386 kts 88°
2026-05-06 19:12 41.75351 -87.36542 14617 ft 393 kts 88°
2026-05-06 19:13 41.75475 -87.32856 15397 ft 398 kts 88°
2026-05-06 19:13 41.75596 -87.29130 16152 ft 404 kts 89°
2026-05-06 19:13 41.75714 -87.25332 16881 ft 411 kts 89°
2026-05-06 19:13 41.75829 -87.21475 17616 ft 417 kts 89°
2026-05-06 19:14 41.75938 -87.17566 18373 ft 423 kts 89°
2026-05-06 19:14 41.76025 -87.13605 19030 ft 428 kts 93°
2026-05-06 19:14 41.75677 -87.09639 19642 ft 430 kts 107°
2026-05-06 19:14 41.74767 -87.05847 20332 ft 428 kts 116°
2026-05-06 19:15 41.73744 -87.02075 21048 ft 433 kts 115°
2026-05-06 19:15 41.72754 -86.98294 21706 ft 438 kts 115°
2026-05-06 19:15 41.71716 -86.94385 22375 ft 443 kts 116°
2026-05-06 19:15 41.70654 -86.90497 23036 ft 447 kts 116°
2026-05-06 19:16 41.69555 -86.86580 23681 ft 452 kts 117°
2026-05-06 19:16 41.68440 -86.82691 24179 ft 457 kts 117°
2026-05-06 19:16 41.67279 -86.78695 24629 ft 465 kts 118°
2026-05-06 19:16 41.66090 -86.74632 25091 ft 471 kts 118°
2026-05-06 19:17 41.64885 -86.70524 25549 ft 478 kts 118°
2026-05-06 19:17 41.63663 -86.66365 26006 ft 484 kts 118°
2026-05-06 19:17 41.62418 -86.62136 26438 ft 491 kts 119°
2026-05-06 19:17 41.61157 -86.57856 26876 ft 498 kts 119°
2026-05-06 19:18 41.59879 -86.53524 27300 ft 504 kts 120°
2026-05-06 19:18 41.58586 -86.49144 27718 ft 510 kts 120°
2026-05-06 19:18 41.57273 -86.44705 28129 ft 517 kts 120°
2026-05-06 19:18 41.55944 -86.40220 28531 ft 523 kts 120°
2026-05-06 19:19 41.54591 -86.35669 28920 ft 529 kts 120°
2026-05-06 19:19 41.53226 -86.31084 29309 ft 534 kts 121°
2026-05-06 19:19 41.51844 -86.26455 29689 ft 540 kts 121°
2026-05-06 19:19 41.50442 -86.21767 30052 ft 546 kts 121°
2026-05-06 19:20 41.49024 -86.17045 30368 ft 550 kts 121°
2026-05-06 19:20 41.47607 -86.12352 30703 ft 554 kts 121°
2026-05-06 19:20 41.46139 -86.07519 31051 ft 557 kts 122°
2026-05-06 19:20 41.44690 -86.02782 31375 ft 560 kts 122°
2026-05-06 19:21 41.43209 -85.97959 31685 ft 564 kts 122°
2026-05-06 19:21 41.41712 -85.93108 31982 ft 568 kts 122°
2026-05-06 19:21 41.40204 -85.88229 32346 ft 569 kts 122°
2026-05-06 19:21 41.38694 -85.83346 32769 ft 569 kts 122°
2026-05-06 19:22 41.37189 -85.78477 33196 ft 569 kts 122°
2026-05-06 19:22 41.35682 -85.73597 33577 ft 570 kts 122°
2026-05-06 19:22 41.34170 -85.68712 33921 ft 571 kts 122°
2026-05-06 19:22 41.32653 -85.63824 34237 ft 572 kts 122°
2026-05-06 19:23 41.31129 -85.58938 34622 ft 570 kts 122°
2026-05-06 19:23 41.29606 -85.54085 35014 ft 567 kts 122°
2026-05-06 19:23 41.28080 -85.49254 35400 ft 565 kts 122°
2026-05-06 19:23 41.26557 -85.44457 35807 ft 562 kts 122°
2026-05-06 19:24 41.25034 -85.39676 36196 ft 560 kts 122°
2026-05-06 19:24 41.23518 -85.34929 36598 ft 557 kts 122°
2026-05-06 19:24 41.22007 -85.30201 36997 ft 554 kts 122°
2026-05-06 19:24 41.20505 -85.25510 37388 ft 551 kts 122°
2026-05-06 19:25 41.19005 -85.20829 37758 ft 549 kts 122°
2026-05-06 19:25 41.17512 -85.16174 38101 ft 547 kts 122°
2026-05-06 19:25 41.16039 -85.11587 38463 ft 545 kts 122°
2026-05-06 19:25 41.14554 -85.06967 38774 ft 543 kts 122°
2026-05-06 19:26 41.13072 -85.02365 38993 ft 543 kts 121°
2026-05-06 19:26 41.10085 -84.93117 39006 ft 547 kts 121°
2026-05-06 19:27 41.07097 -84.83850 39000 ft 546 kts 121°
2026-05-06 19:27 41.04113 -84.74581 38996 ft 546 kts 121°
2026-05-06 19:28 41.01144 -84.65381 39000 ft 546 kts 122°
2026-05-06 19:28 40.98146 -84.56136 38995 ft 546 kts 122°
2026-05-06 19:29 40.95139 -84.46900 38997 ft 547 kts 122°
2026-05-06 19:29 40.92118 -84.37661 38995 ft 547 kts 122°
2026-05-06 19:30 40.89101 -84.28466 38999 ft 548 kts 122°
2026-05-06 19:30 40.86056 -84.19217 38995 ft 549 kts 122°
2026-05-06 19:31 40.82994 -84.09954 38994 ft 551 kts 122°
2026-05-06 19:31 40.78376 -83.96038 38997 ft 552 kts 122°
2026-05-06 19:32 40.75278 -83.86741 38993 ft 553 kts 122°
2026-05-06 19:32 40.72169 -83.77445 38990 ft 554 kts 122°
2026-05-06 19:33 40.69050 -83.68150 38990 ft 555 kts 122°
2026-05-06 19:33 40.65920 -83.58843 38987 ft 555 kts 122°
2026-05-06 19:34 40.62781 -83.49538 38972 ft 556 kts 122°
2026-05-06 19:34 40.59655 -83.40299 38975 ft 555 kts 122°
2026-05-06 19:35 40.56503 -83.31012 38973 ft 555 kts 122°
2026-05-06 19:35 40.53350 -83.21752 38979 ft 555 kts 122°
2026-05-06 19:36 40.50187 -83.12493 38973 ft 555 kts 122°
2026-05-06 19:36 40.47035 -83.03309 38982 ft 555 kts 122°
2026-05-06 19:37 40.43853 -82.94066 38972 ft 555 kts 122°
2026-05-06 19:37 40.41202 -82.86390 38969 ft 555 kts 123°
2026-05-06 19:38 40.38010 -82.77173 38966 ft 555 kts 123°
2026-05-06 19:38 40.34812 -82.67966 38957 ft 554 kts 123°
2026-05-06 19:39 40.31606 -82.58768 38952 ft 554 kts 123°
2026-05-06 19:39 40.28401 -82.49596 38952 ft 554 kts 123°
2026-05-06 19:40 40.25187 -82.40432 38954 ft 553 kts 123°
2026-05-06 19:40 40.21967 -82.31280 38950 ft 553 kts 123°
2026-05-06 19:41 40.18740 -82.22139 38946 ft 553 kts 123°
2026-05-06 19:41 40.15503 -82.12999 38934 ft 553 kts 123°
2026-05-06 19:42 40.12288 -82.03935 38936 ft 553 kts 123°
2026-05-06 19:42 40.09051 -81.94835 38940 ft 552 kts 123°
2026-05-06 19:43 40.05806 -81.85746 38948 ft 552 kts 123°
2026-05-06 19:43 40.02552 -81.76663 38952 ft 552 kts 123°
2026-05-06 19:44 39.99292 -81.67598 38951 ft 552 kts 123°
2026-05-06 19:44 39.96022 -81.58539 38951 ft 552 kts 123°
2026-05-06 19:45 39.92749 -81.49491 38954 ft 552 kts 124°
2026-05-06 19:45 39.89455 -81.40428 38959 ft 557 kts 123°
2026-05-06 19:46 39.86080 -81.31232 38957 ft 567 kts 124°
2026-05-06 19:46 39.82658 -81.21939 38930 ft 570 kts 123°
2026-05-06 19:47 39.79257 -81.12693 38927 ft 570 kts 124°
2026-05-06 19:47 39.77544 -81.08036 38728 ft 572 kts 124°
2026-05-06 19:47 39.75817 -81.03351 38258 ft 572 kts 123°
2026-05-06 19:48 39.74106 -80.98705 37822 ft 568 kts 124°
2026-05-06 19:48 39.72395 -80.94063 37397 ft 568 kts 124°
2026-05-06 19:48 39.70681 -80.89432 36996 ft 569 kts 123°
2026-05-06 19:48 39.68961 -80.84799 36932 ft 568 kts 124°
2026-05-06 19:49 39.65536 -80.75608 36917 ft 570 kts 124°
2026-05-06 19:49 39.62063 -80.66333 36898 ft 572 kts 124°
2026-05-06 19:50 39.58576 -80.57057 36715 ft 574 kts 124°
2026-05-06 19:50 39.56813 -80.52386 36163 ft 576 kts 124°
2026-05-06 19:50 39.55061 -80.47746 35664 ft 571 kts 124°
2026-05-06 19:51 39.53320 -80.43131 35173 ft 568 kts 124°
2026-05-06 19:51 39.51577 -80.38526 34710 ft 569 kts 124°
2026-05-06 19:51 39.49829 -80.33930 34255 ft 569 kts 124°
2026-05-06 19:51 39.48073 -80.29332 33774 ft 569 kts 124°
2026-05-06 19:52 39.46316 -80.24748 33247 ft 568 kts 124°
2026-05-06 19:52 39.44556 -80.20172 32727 ft 567 kts 124°
2026-05-06 19:52 39.42807 -80.15659 32216 ft 565 kts 124°
2026-05-06 19:52 39.41016 -80.11064 31710 ft 563 kts 124°
2026-05-06 19:53 39.39272 -80.06619 31214 ft 561 kts 124°
2026-05-06 19:53 39.37504 -80.02148 30723 ft 558 kts 124°
2026-05-06 19:53 39.35722 -79.97707 30251 ft 555 kts 125°
2026-05-06 19:53 39.33916 -79.93309 29757 ft 552 kts 125°
2026-05-06 19:54 39.32176 -79.88956 29741 ft 541 kts 124°
2026-05-06 19:54 39.30536 -79.84551 29794 ft 550 kts 120°
2026-05-06 19:54 39.29226 -79.79827 29767 ft 569 kts 107°
2026-05-06 19:54 39.28648 -79.74713 29679 ft 581 kts 98°
2026-05-06 19:55 39.28327 -79.69490 29429 ft 582 kts 96°
2026-05-06 19:55 39.28030 -79.64382 28989 ft 574 kts 97°
2026-05-06 19:55 39.27669 -79.59291 28514 ft 565 kts 98°
2026-05-06 19:55 39.27287 -79.54265 28024 ft 557 kts 98°
2026-05-06 19:56 39.26918 -79.49312 27544 ft 555 kts 98°
2026-05-06 19:56 39.26527 -79.44309 27087 ft 565 kts 99°
2026-05-06 19:56 39.26109 -79.39258 26584 ft 565 kts 99°
2026-05-06 19:56 39.25665 -79.34237 26097 ft 558 kts 99°
2026-05-06 19:57 39.25215 -79.29282 25629 ft 554 kts 99°
2026-05-06 19:57 39.24799 -79.24360 25162 ft 550 kts 98°
2026-05-06 19:57 39.24417 -79.19462 24695 ft 546 kts 98°
2026-05-06 19:57 39.24036 -79.14602 24217 ft 542 kts 99°
2026-05-06 19:58 39.23631 -79.09789 23739 ft 538 kts 99°
2026-05-06 19:58 39.23192 -79.05017 23275 ft 533 kts 100°
2026-05-06 19:58 39.22757 -79.00341 22774 ft 530 kts 99°
2026-05-06 19:58 39.22345 -78.95651 22264 ft 524 kts 98°
2026-05-06 19:59 39.21941 -78.91022 21826 ft 513 kts 99°
2026-05-06 19:59 39.21516 -78.86508 21372 ft 501 kts 100°
2026-05-06 19:59 39.21062 -78.82111 20972 ft 490 kts 100°
2026-05-06 19:59 39.20610 -78.77791 20556 ft 481 kts 100°
2026-05-06 20:00 39.20192 -78.73547 20132 ft 472 kts 99°
2026-05-06 20:00 39.19798 -78.69380 19745 ft 464 kts 98°
2026-05-06 20:00 39.19412 -78.65280 19356 ft 457 kts 97°
2026-05-06 20:00 39.19015 -78.61246 18967 ft 450 kts 99°
2026-05-06 20:01 39.18614 -78.57273 18596 ft 446 kts 99°
2026-05-06 20:01 39.18208 -78.53358 18212 ft 444 kts 99°
2026-05-06 20:01 39.17792 -78.49440 17792 ft 439 kts 99°
2026-05-06 20:01 39.17383 -78.45564 17393 ft 433 kts 99°
2026-05-06 20:02 39.16995 -78.41752 17141 ft 424 kts 99°
2026-05-06 20:02 39.16625 -78.37996 16783 ft 421 kts 98°
2026-05-06 20:02 39.16062 -78.34317 16464 ft 416 kts 108°
2026-05-06 20:02 39.15242 -78.30755 16117 ft 414 kts 110°
2026-05-06 20:03 39.14356 -78.27230 15767 ft 413 kts 111°
2026-05-06 20:03 39.13445 -78.23728 15412 ft 412 kts 112°
2026-05-06 20:03 39.12524 -78.20233 15061 ft 411 kts 112°
2026-05-06 20:03 39.11623 -78.16740 14711 ft 411 kts 111°
2026-05-06 20:04 39.10751 -78.13236 14350 ft 410 kts 110°
2026-05-06 20:04 39.09899 -78.09757 13989 ft 405 kts 111°
2026-05-06 20:04 39.09020 -78.06340 13649 ft 399 kts 111°
2026-05-06 20:04 39.08151 -78.02980 13301 ft 394 kts 111°
2026-05-06 20:05 39.07318 -77.99678 12927 ft 391 kts 111°
2026-05-06 20:05 39.06486 -77.96368 12564 ft 386 kts 112°
2026-05-06 20:05 39.05638 -77.93117 12233 ft 380 kts 112°
2026-05-06 20:05 39.04809 -77.89916 11910 ft 374 kts 112°
2026-05-06 20:06 39.04011 -77.86762 11585 ft 367 kts 111°
2026-05-06 20:06 39.03236 -77.83671 11296 ft 360 kts 112°
2026-05-06 20:06 39.02444 -77.80639 10999 ft 354 kts 112°
2026-05-06 20:06 39.01674 -77.77659 10705 ft 349 kts 111°
2026-05-06 20:07 39.00938 -77.74708 10411 ft 344 kts 111°
2026-05-06 20:07 39.00185 -77.71820 10115 ft 336 kts 112°
2026-05-06 20:07 38.99458 -77.69028 9985 ft 320 kts 112°
2026-05-06 20:07 38.98771 -77.66309 9583 ft 321 kts 111°
2026-05-06 20:08 38.98066 -77.63604 9288 ft 316 kts 115°
2026-05-06 20:08 38.97269 -77.60992 8991 ft 313 kts 116°
2026-05-06 20:08 38.96477 -77.58400 8702 ft 310 kts 115°
2026-05-06 20:08 38.95714 -77.55827 8426 ft 307 kts 114°
2026-05-06 20:09 38.95021 -77.53244 8159 ft 306 kts 106°
2026-05-06 20:09 38.94854 -77.50525 7841 ft 309 kts 82°
2026-05-06 20:09 38.95477 -77.47896 7534 ft 307 kts 66°
2026-05-06 20:09 38.96290 -77.45355 7183 ft 308 kts 65°
2026-05-06 20:10 38.97120 -77.42895 7104 ft 298 kts 64°
2026-05-06 20:10 38.97937 -77.40487 7128 ft 291 kts 64°
2026-05-06 20:10 38.98741 -77.38093 6863 ft 291 kts 64°
2026-05-06 20:10 38.99522 -77.35724 6616 ft 283 kts 64°
2026-05-06 20:11 39.00268 -77.33414 6399 ft 273 kts 65°
2026-05-06 20:11 39.00989 -77.31235 6225 ft 259 kts 64°
2026-05-06 20:11 39.01696 -77.29113 5712 ft 256 kts 64°
2026-05-06 20:11 39.02383 -77.27029 5251 ft 251 kts 65°
2026-05-06 20:12 39.02857 -77.24914 4759 ft 245 kts 90°
2026-05-06 20:12 39.02458 -77.22871 4262 ft 231 kts 124°
2026-05-06 20:12 39.01495 -77.21298 3779 ft 220 kts 138°
2026-05-06 20:12 39.00461 -77.19888 3280 ft 213 kts 140°
2026-05-06 20:13 38.99465 -77.18568 3091 ft 196 kts 141°
2026-05-06 20:13 38.98524 -77.17323 3093 ft 194 kts 141°
2026-05-06 20:13 38.97600 -77.16085 2887 ft 186 kts 140°
2026-05-06 20:13 38.96774 -77.14896 2698 ft 168 kts 139°
2026-05-06 20:14 38.95996 -77.13915 2525 ft 158 kts 146°
2026-05-06 20:14 38.95146 -77.13034 2367 ft 154 kts 152°
2026-05-06 20:14 38.94314 -77.12150 2302 ft 158 kts 145°
2026-05-06 20:14 38.93489 -77.11200 2411 ft 158 kts 153°
2026-05-06 20:15 38.92613 -77.10509 2355 ft 135 kts 160°
2026-05-06 20:15 38.91755 -77.09961 1910 ft 140 kts 163°
2026-05-06 20:15 38.90899 -77.09421 1627 ft 133 kts 158°
2026-05-06 20:15 38.90294 -77.08528 1296 ft 143 kts 115°
2026-05-06 20:16 38.90113 -77.07252 1043 ft 143 kts 118°
2026-05-06 20:16 38.89555 -77.06286 896 ft 131 kts 148°
2026-05-06 20:16 38.88847 -77.05603 738 ft 124 kts 148°
2026-05-06 20:16 38.88213 -77.04827 592 ft 129 kts 139°
2026-05-06 20:17 38.87541 -77.04112 465 ft 119 kts 165°
2026-05-06 20:17 38.86760 -77.03926 221 ft 114 kts 179°
2026-05-06 20:17 38.85973 -77.03859 42 ft 112 kts 176°
2026-05-06 20:17 38.85394 -77.03800 26 ft 27 kts 175°
2026-05-06 20:18 38.85277 -77.03823 22 ft 13 kts 229°
2026-05-06 20:18 38.85260 -77.03888 23 ft 0 kts 260°
2026-05-06 20:19 38.85238 -77.03920 25 ft 5 kts 203°
2026-05-06 20:19 38.85207 -77.03923 25 ft 4 kts 175°
2026-05-06 20:20 38.85177 -77.03919 24 ft 7 kts 175°
2026-05-06 20:20 38.85119 -77.03913 24 ft 9 kts 175°
2026-05-06 20:20 38.85056 -77.03906 24 ft 9 kts 175°
2026-05-06 20:20 38.85003 -77.03901 24 ft 7 kts 177°
2026-05-06 20:21 38.84961 -77.03898 24 ft 5 kts 177°
2026-05-06 20:21 38.84925 -77.03895 24 ft 7 kts 175°
2026-05-06 20:21 38.84870 -77.03932 24 ft 9 kts 223°
2026-05-06 20:21 38.84820 -77.03944 25 ft 6 kts 172°
2026-05-06 20:22 38.84779 -77.03948 24 ft 6 kts 198°
2026-05-06 20:22 38.84730 -77.03978 23 ft 11 kts 206°
2026-05-06 20:22 38.84659 -77.04023 24 ft 9 kts 206°
2026-05-06 20:22 38.84647 -77.04030 23 ft 0 kts 206°
2026-05-06 20:23 38.84637 -77.04037 27 ft 8 kts 206°
2026-05-06 20:23 38.84597 -77.04088 25 ft 8 kts 246°
2026-05-06 20:23 38.84587 -77.04129 23 ft 7 kts 254°
2026-05-06 20:23 38.84607 -77.04179 23 ft 5 kts 329°
2026-05-06 20:24 38.84639 -77.04198 27 ft 5 kts 334°
2026-05-06 20:24 38.84650 -77.04205 25 ft 0 kts 333°